Location: Newark
(44.2003°N, 3.2583°E)
Time: 04:16:05
(UTC+00:00)

Envisat - Pass Details

Date: 25 September 2019
Orbit: 764 x 766 km, 98.1° (Epoch: 15 October)

Event Time Altitude Azimuth Distance (km) Brightness Sun altitude
Rises 17:56:36 0° 168° (SSE) 3,218 6.1 -3.9°
Reaches altitude 10° 17:58:54 10° 170° (S) 2,296 5.4 -4.3°
Maximum altitude 18:03:58 78° 257° (WSW) 786 3.3 -5.2°
Drops below altitude 10° 18:09:05 10° 344° (NNW) 2,312 5.8 -6.1°
Sets 18:11:24 0° 346° (NNW) 3,243 6.5 -6.5°
